[[{"header":{"parameterUnit":"m.s-1","parameterCategory":1,"la1":30.2991,"la2":30.254,"lo1":-89.0895,"lo2":-89.0444,"dy":0.0017,"dx":0.0017,"nx":28,"ny":28,"refTime":"2024-02-03T09:00:00:Z","depth":0,"parameterNumber":2,"parameterNumberName":"U-component_of_WINDS"},"data":[0,0,0,0,0,0,0,0,0,0,0,0,0,0,0,0,0,0,0,0,0,0,0,0,0,0,0,0,0,0,0,0,0,0,0,0,0,0,0,0,0,0,0,0,0,0,0,0,0,0,0,0,0,0,0,0,0,0,-12.3332,-12.3334,0,-12.3588,-12.3591,-12.3594,-12.3534,-12.3529,-12.3524,-12.352,-12.3783,-12.3795,-12.3806,0,0,0,0,0,0,0,0,0,0,0,0,0,-12.2791,-12.2801,-12.3331,-12.3334,-12.3338,-12.3588,-12.3591,-12.3595,-12.3535,-12.3529,-12.3523,-12.3517,-12.378,-12.3793,-12.3807,0,0,0,0,0,0,0,0,0,0,0,0,0,-12.3035,-12.2805,-12.3331,-12.3338,-12.3341,-12.3587,-12.3591,-12.3596,-12.3536,-12.3529,-12.3521,-12.3514,-12.3775,-12.3792,-12.3809,-12.4064,0,0,-12.3862,-12.387,0,0,0,0,0,0,0,0,-12.3021,-12.3054,-12.3334,-12.3338,-12.3342,-12.3521,-12.3497,-12.3753,-12.3538,-12.3462,-12.3519,-12.3511,-12.3702,-12.3725,-12.379,-12.4076,-12.4088,-12.3864,-12.3874,-12.3882,-12.3887,0,0,0,0,0,0,0,-12.3004,-12.3043,-12.3433,-12.3338,-12.3343,-12.3329,-12.3355,-12.3546,-12.362,-12.3468,-12.3464,-12.3496,-12.3703,-12.3773,-12.3795,-12.4091,-12.3863,-12.3879,-12.389,-12.3896,-12.46,-12.4608,0,0,0,0,0,0,-12.2983,-12.3029,-12.3425,-12.3441,-12.316,-12.3345,-12.3374,-12.3471,-12.3618,-12.3633,-12.3502,-12.3492,-12.3747,-12.3775,-12.3804,-12.411,-12.3882,-12.3898,-12.3908,-12.4592,-12.4602,-12.461,0,0,0,0,0,0,-12.2972,-12.3019,-12.3414,-12.3234,-12.3283,-12.3362,-12.3471,-12.348,-12.355,-12.3643,-12.3657,-12.3559,-12.3742,-12.378,-12.4,-12.4119,-12.3906,-12.3922,-12.4582,-12.4595,-12.4606,-12.4725,0,0,0,0,0,0,-12.2957,-12.3016,-12.3112,-12.3237,-12.3293,-12.3605,-12.3479,-12.3491,-12.358,-12.3569,-12.3701,-12.3715,-12.3739,-12.3974,-12.4017,-12.4139,-12.3935,-12.4571,-12.4588,-12.4602,-12.4711,-12.474,-12.4765,0,0,0,0,0,-12.2938,-12.3136,-12.3118,-12.3166,-12.3416,-12.3612,-12.3644,-12.3667,-12.359,-12.3688,-12.3748,-12.3711,-12.41,-12.3997,-12.4045,-12.4174,-12.4564,-12.4583,-12.4601,-12.4699,-12.4734,-12.4765,0,0,0,0,0,0,-12.3023,-12.3152,-12.3133,-12.3378,-12.3484,-12.3601,-12.3725,-12.3704,-12.3835,-12.382,-12.3844,-12.3874,-12.4098,-12.4159,-12.4042,-12.4428,-12.4321,-12.435,-12.4379,-12.4414,-12.444,-12.4419,-12.395,0,0,0,0,0,-12.3071,-12.3219,-12.3324,-12.353,-12.3584,-12.3646,-12.3732,-12.3741,-12.3852,-12.3897,-12.3974,-12.4083,-12.423,-12.4326,-12.4467,-12.4722,-12.4748,-12.4834,-12.4861,-12.4883,-12.4906,-12.5044,-12.5083,-12.4671,-12.4671,-12.4671,0,0,-12.317,-12.3259,-12.335,-12.3549,-12.3632,-12.3785,-12.3684,-12.385,-12.3963,-12.3923,-12.4133,-12.4194,-12.4319,-12.4557,-12.4665,-12.4614,-12.5027,-12.4907,-12.4923,-12.4935,-12.5067,-12.5106,-12.5141,-12.4684,-12.4682,-12.468,0,0,-12.3427,-12.3511,-12.369,-12.3776,-12.3904,-12.3944,-12.3988,-12.411,-12.4148,-12.436,-12.4333,-12.4469,-12.4722,-12.4811,-12.489,-12.5185,-12.5154,-12.523,-12.537,-12.5504,-12.5537,-12.5565,-12.5668,-12.5704,-12.5254,-12.5255,-12.5255,0,-12.3533,-12.3761,-12.3785,-12.3953,-12.4041,-12.4013,-12.4194,-12.4278,-12.4445,-12.4506,-12.4448,-12.4764,-12.4846,-12.5104,-12.5176,-12.5242,-12.5291,-12.5212,-12.553,-12.5559,-12.5586,-12.5684,-12.5723,-12.5263,-12.5262,-12.5261,-12.526,0,-12.3885,-12.4044,-12.4174,-12.4335,-12.4439,-12.4614,-12.4664,-12.4766,-12.4768,-12.4814,-12.5031,-12.513,-12.5289,-12.5352,-12.5355,-12.5611,-12.5575,-12.5524,-12.5415,-12.5633,-12.5725,-12.5763,-12.5274,-12.5271,-12.5269,-12.5267,0,0,-12.4198,-12.4373,-12.4419,-12.4492,-12.4633,-12.4757,-12.4931,-12.5087,-12.5172,-12.5291,-12.5436,-12.5653,-12.5606,-12.5695,-12.5709,-12.5828,-12.6052,-12.5762,-12.5765,-12.5809,-12.6338,-12.6372,-12.6415,-12.6036,-12.6043,-12.6049,-12.6326,0,-12.4464,-12.4769,-12.4797,-12.5071,-12.5217,-12.5195,-12.5346,-12.545,-12.5499,-12.5632,-12.5687,-12.5838,-12.5767,-12.5821,-12.5938,-12.6,-12.6158,-12.5981,-12.6169,-12.6176,-12.6133,-12.6463,-12.65,-12.6756,-12.6362,-12.6368,-12.6373,0,-12.4815,-12.4942,-12.5231,-12.5351,-12.5414,-12.5549,-12.5694,-12.5822,-12.5939,-12.5967,-12.6069,-12.6067,-12.6247,-12.6136,-12.6384,-12.6263,-12.6343,-12.6386,-12.6396,-12.641,-12.6284,-12.6483,-12.6839,-12.6876,-12.6431,-12.6426,-12.6422,0,-12.5009,-12.5254,-12.5458,-12.5522,-12.5669,-12.5764,-12.583,-12.594,-12.6032,-12.616,-12.622,-12.6368,-12.6448,-12.6563,-12.6602,-12.6518,-12.6847,-12.674,-12.6874,-12.6873,-12.6939,-12.6934,-12.7309,-12.6999,-12.6999,-12.6998,-12.6997,0,-12.5301,-12.5477,-12.5547,-12.5672,-12.5869,-12.5901,-12.6096,-12.6157,-12.6256,-12.6392,-12.6384,-12.6512,-12.6558,-12.6695,-12.6727,-12.6926,-12.6964,-12.699,-12.6996,-12.6988,-12.6984,-12.7037,-12.7018,-12.7008,-12.7006,-12.7004,-12.7002,0,-12.5549,-12.5603,-12.5823,-12.5945,-12.598,-12.612,-12.6224,-12.6345,-12.6394,-12.6567,-12.661,-12.6688,-12.6848,-12.69,-12.7094,-12.7116,-12.7347,-12.7339,-12.7306,-12.7306,-12.7435,-12.7421,-12.7853,-12.7911,-12.7567,-12.757,-12.7573,0,-12.5729,-12.5864,-12.6001,-12.6091,-12.6161,-12.6307,-12.6401,-12.644,-12.6538,-12.6683,-12.6786,-12.6946,-12.7074,-12.7332,-12.7406,-12.7555,-12.7548,-12.769,-12.757,-12.7558,-12.7545,-12.7535,-12.7547,-12.771,-12.7714,-12.7716,-12.7719,0,-12.6042,-12.6062,-12.6197,-12.6344,-12.6456,-12.6573,-12.6686,-12.6761,-12.6816,-12.6927,-12.7091,-12.7191,-12.739,-12.7547,-12.7699,-12.7768,-12.7753,-12.7757,-12.7795,-12.7786,-12.776,-12.7772,-12.7363,-12.7745,-12.7743,-12.7741,-12.7739,-12.7738,-12.6258,-12.6377,-12.6491,-12.6643,-12.6732,-12.6838,-12.6957,-12.7022,-12.7159,-12.7323,-12.7339,-12.7515,-12.7631,-12.7833,-12.791,-12.8049,-12.8008,-12.8064,-12.8078,-12.809,-12.8098,-12.7742,-12.8078,-12.8077,-12.8076,-12.8076,-12.8075,0,-12.6567,-12.664,-12.678,-12.6937,-12.7057,-12.7035,-12.7159,-12.726,-12.7415,-12.7525,-12.7652,-12.784,-12.7994,-12.8082,-12.8235,-12.833,-12.8327,-12.8368,-12.8359,-12.8375,-12.8127,-12.8077,-12.8368,-12.8368,-12.8368,-12.8368,-12.8368,-12.8368,-12.6741,-12.6939,-12.6974,-12.7218,-12.729,-12.7462,-12.7535,-12.7633,-12.772,-12.7931,-12.8058,-12.8115,-12.8216,-12.8377,-12.8517,-12.8539,-12.8594,-12.864,-12.8657,-12.8423,-12.8393,-12.8364,-12.8316,-12.8653,-12.8653,-12.8892,-12.8895,-12.8896]},{"header":{"parameterUnit":"m.s-1","parameterCategory":1,"la1":30.2991,"la2":30.254,"lo1":-89.0895,"lo2":-89.0444,"dy":0.0017,"dx":0.0017,"nx":28,"ny":28,"refTime":"2024-02-03T09:00:00:Z","depth":0,"parameterNumber":3,"parameterNumberName":"V-component_of_WINDS"},"data":[0,0,0,0,0,0,0,0,0,0,0,0,0,0,0,0,0,0,0,0,0,0,0,0,0,0,0,0,0,0,0,0,0,0,0,0,0,0,0,0,0,0,0,0,0,0,0,0,0,0,0,0,0,0,0,0,0,0,5.0051,5.0052,0,5.0163,5.0164,5.0166,5.0163,5.0162,5.016,5.0159,5.0266,5.0271,5.0275,0,0,0,0,0,0,0,0,0,0,0,0,0,4.9832,4.9836,5.0051,5.0053,5.0054,5.0163,5.0165,5.0166,5.0163,5.0162,5.016,5.0158,5.0265,5.027,5.0275,0,0,0,0,0,0,0,0,0,0,0,0,0,4.9933,4.9837,5.0051,5.0066,5.0068,5.0163,5.0165,5.0166,5.0164,5.0162,5.0159,5.0157,5.0263,5.027,5.0276,5.036,0,0,5.0295,5.0298,0,0,0,0,0,0,0,0,4.9928,4.9942,5.0062,5.0065,5.0068,5.0147,5.0127,5.0231,5.0164,5.0127,5.0159,5.0156,5.0228,5.0237,5.0263,5.0365,5.037,5.0296,5.03,5.0303,5.0304,0,0,0,0,0,0,0,4.9921,4.9937,5.0095,5.0064,5.0068,5.0066,5.0078,5.0146,5.0189,5.013,5.0131,5.0144,5.0229,5.0257,5.0265,5.0372,5.0296,5.0301,5.0305,5.0308,5.0553,5.0556,0,0,0,0,0,0,4.9911,4.9931,5.0092,5.0099,4.9991,5.0072,5.0085,5.0124,5.0188,5.0196,5.0146,5.0144,5.0247,5.0258,5.0269,5.0375,5.0303,5.0309,5.0312,5.0551,5.0554,5.0557,0,0,0,0,0,0,4.9906,4.9926,5.0087,5.0015,5.0035,5.0078,5.0121,5.0127,5.0155,5.02,5.0207,5.0167,5.0246,5.026,5.0339,5.0379,5.0311,5.0317,5.0547,5.0552,5.0555,5.0586,0,0,0,0,0,0,4.99,4.9924,4.9957,5.0016,5.0039,5.0156,5.0124,5.0131,5.0167,5.0165,5.0221,5.0228,5.0245,5.033,5.0346,5.0386,5.0322,5.0544,5.0549,5.0554,5.0581,5.059,5.0598,0,0,0,0,0,4.9892,4.9958,4.9958,4.9978,5.0082,5.0158,5.0172,5.0192,5.017,5.0203,5.0233,5.0226,5.0372,5.0338,5.0356,5.0399,5.0542,5.0548,5.0554,5.0577,5.0588,5.0598,0,0,0,0,0,0,4.9899,4.9966,4.9967,5.0054,5.0101,5.0158,5.02,5.0202,5.0254,5.0249,5.027,5.0283,5.0362,5.0388,5.0349,5.0486,5.0454,5.0464,5.0466,5.0477,5.0485,5.0476,5.0328,0,0,0,0,0,4.9911,4.997,5.0024,5.0096,5.012,5.0157,5.019,5.0203,5.0251,5.027,5.0305,5.035,5.0407,5.0443,5.0497,5.0586,5.0599,5.0624,5.0633,5.0639,5.0647,5.0699,5.0712,5.0577,5.0577,5.0576,0,0,4.9935,4.9979,5.0014,5.0099,5.0136,5.0196,5.0173,5.0235,5.028,5.0278,5.0356,5.0384,5.0437,5.0522,5.0561,5.0546,5.0688,5.0647,5.0652,5.0656,5.0706,5.0719,5.0731,5.0581,5.058,5.0579,0,0,5.0011,5.005,5.0116,5.0155,5.0215,5.0239,5.0255,5.0314,5.0333,5.0413,5.0414,5.0466,5.0562,5.0601,5.0633,5.073,5.0726,5.0746,5.0789,5.0839,5.085,5.0859,5.0895,5.0908,5.0754,5.0754,5.0754,0,5.0033,5.0124,5.0148,5.0214,5.0251,5.0257,5.0325,5.0361,5.0433,5.0459,5.0442,5.0567,5.0602,5.0698,5.0722,5.0747,5.0766,5.0739,5.0847,5.0857,5.0866,5.09,5.0914,5.0757,5.0756,5.0756,5.0756,0,5.015,5.0214,5.0259,5.0334,5.0377,5.0442,5.0476,5.0517,5.0527,5.0553,5.0636,5.0679,5.0744,5.0768,5.0776,5.0866,5.0856,5.0843,5.0811,5.0881,5.0914,5.0927,5.076,5.0759,5.0758,5.0758,0,0,5.0228,5.032,5.0337,5.0372,5.0441,5.049,5.0557,5.0624,5.0659,5.071,5.0767,5.0851,5.0841,5.0878,5.089,5.0935,5.1011,5.0917,5.0918,5.0934,5.1116,5.1126,5.114,5.101,5.1013,5.1015,5.1112,0,5.0312,5.0433,5.0459,5.0564,5.0624,5.0633,5.0692,5.074,5.0768,5.0822,5.0852,5.0912,5.0893,5.0916,5.096,5.0993,5.1048,5.0986,5.1063,5.1065,5.105,5.1157,5.1167,5.1256,5.1125,5.1127,5.1129,0,5.0424,5.0483,5.0595,5.066,5.0686,5.0738,5.0804,5.0856,5.0912,5.0929,5.0973,5.0983,5.1053,5.1019,5.1117,5.1074,5.1107,5.1128,5.1132,5.114,5.1101,5.1168,5.1285,5.1299,5.1149,5.1147,5.1146,0,5.0473,5.058,5.0661,5.0691,5.0768,5.0806,5.0839,5.0893,5.0933,5.099,5.1016,5.1079,5.1114,5.1162,5.1189,5.1162,5.1285,5.1253,5.1302,5.1301,5.1326,5.1324,5.145,5.1347,5.1347,5.1347,5.1347,0,5.0564,5.0632,5.0685,5.0735,5.0813,5.0842,5.0918,5.0951,5.0999,5.1056,5.1067,5.1119,5.1151,5.1208,5.1229,5.1308,5.1323,5.1339,5.1344,5.1338,5.1337,5.136,5.1355,5.135,5.135,5.1349,5.1348,0,5.063,5.0668,5.0758,5.0826,5.0845,5.0899,5.0957,5.1006,5.1036,5.1107,5.1126,5.1171,5.124,5.1272,5.1355,5.137,5.146,5.146,5.1442,5.1444,5.1491,5.1487,5.1637,5.1659,5.1541,5.1542,5.1543,0,5.0685,5.0739,5.0814,5.0855,5.0891,5.0954,5.0997,5.1029,5.1073,5.1143,5.1184,5.1254,5.1312,5.142,5.146,5.1525,5.1527,5.1576,5.1537,5.1531,5.153,5.1526,5.1533,5.1582,5.1583,5.1584,5.1585,0,5.078,5.0798,5.086,5.0931,5.0983,5.1038,5.1093,5.1125,5.1166,5.1215,5.1287,5.1332,5.1421,5.149,5.1559,5.1591,5.1596,5.1598,5.1613,5.1607,5.1595,5.1604,5.1462,5.1593,5.1593,5.1592,5.1591,5.1591,5.0844,5.0894,5.0956,5.1026,5.1072,5.1124,5.1175,5.1214,5.1275,5.1352,5.1367,5.1444,5.1501,5.1595,5.1631,5.1691,5.168,5.17,5.1706,5.1711,5.1715,5.1587,5.1703,5.1703,5.1703,5.1703,5.1703,0,5.0941,5.0983,5.1047,5.1126,5.1182,5.1185,5.1247,5.1293,5.1362,5.1416,5.1475,5.1559,5.1628,5.1675,5.1745,5.1784,5.1788,5.1802,5.1799,5.1807,5.172,5.1701,5.1798,5.1798,5.1798,5.1798,5.1798,5.1798,5.0998,5.1083,5.1109,5.1218,5.1259,5.1337,5.1373,5.1421,5.1466,5.1561,5.162,5.1651,5.1704,5.1778,5.1842,5.1854,5.1879,5.1893,5.1905,5.1823,5.1813,5.1803,5.1785,5.1898,5.1899,5.1988,5.1988,5.1989]}]]